• In Belarus
  • List of Countries
  • For 7 days
  • Water Temperature
  • Weather Map
  • Weather Widgets
  • user-avatar
    Login

    Hourly Weather Pune

    Today, 31 May, Sunday

    Time Temperature Precipitation Wind Pressure Humidity
    00:00 +28°C° 0 mm 2 mps 709 mmHg 70%
    01:00 +28°C° 0 mm 3 mps 708 mmHg 72%
    02:00 +27°C° 0 mm 3 mps 708 mmHg 74%
    03:00 +27°C° 0 mm 2 mps 708 mmHg 77%
    04:00 +26°C° 0 mm 2 mps 709 mmHg 79%
    05:00 +27°C° 0 mm 2 mps 709 mmHg 80%
    06:00 +28°C° 0 mm 2 mps 710 mmHg 74%
    07:00 +29°C° 0 mm 3 mps 710 mmHg 69%
    08:00 +30°C° 0 mm 3 mps 710 mmHg 64%
    09:00 +33°C° 0 mm 3 mps 710 mmHg 54%
    10:00 +35°C° 0 mm 2 mps 710 mmHg 43%
    11:00 +37°C° 0 mm 1 mps 711 mmHg 30%
    12:00 +39°C° 0 mm 1 mps 710 mmHg 28%
    13:00 +40°C° 0 mm 1 mps 710 mmHg 26%
    14:00 +38°C° 0 mm 0 mps 709 mmHg 24%
    15:00 +39°C° 0.4 mm 2 mps 709 mmHg 32%
    16:00 +36°C° 0.4 mm 4 mps 708 mmHg 41%
    17:00 +34°C° 0.4 mm 6 mps 708 mmHg 50%
    18:00 +32°C° 2 mm 6 mps 708 mmHg 57%
    19:00 +30°C° 2 mm 6 mps 709 mmHg 64%
    20:00 +28°C° 2 mm 6 mps 709 mmHg 72%
    21:00 +28°C° 0.6 mm 5 mps 709 mmHg 68%
    22:00 +29°C° 0.6 mm 4 mps 710 mmHg 64%
    23:00 +29°C° 0.6 mm 2 mps 710 mmHg 61%

    Tomorrow, 1 June, Monday

    Time Temperature Precipitation Wind Pressure Humidity
    00:00 +29°C° 0.4 mm 2 mps 710 mmHg 62%
    01:00 +29°C° 0.4 mm 2 mps 709 mmHg 64%
    02:00 +28°C° 0.4 mm 3 mps 709 mmHg 65%
    03:00 +28°C° 0.1 mm 2 mps 709 mmHg 69%
    04:00 +28°C° 0.1 mm 2 mps 709 mmHg 72%
    05:00 +28°C° 0.1 mm 2 mps 709 mmHg 75%
    06:00 +28°C° 0.8 mm 2 mps 709 mmHg 72%
    07:00 +29°C° 0.8 mm 1 mps 710 mmHg 69%
    08:00 +29°C° 0.8 mm 1 mps 711 mmHg 65%
    09:00 +30°C° 1.7 mm 2 mps 711 mmHg 63%
    10:00 +30°C° 1.7 mm 2 mps 711 mmHg 60%
    11:00 +31°C° 1.7 mm 3 mps 711 mmHg 58%
    12:00 +30°C° 0.6 mm 4 mps 711 mmHg 58%
    13:00 +30°C° 0.6 mm 4 mps 710 mmHg 58%
    14:00 +30°C° 0.6 mm 4 mps 710 mmHg 59%
    15:00 +30°C° 0.2 mm 4 mps 709 mmHg 60%
    16:00 +29°C° 0.2 mm 4 mps 709 mmHg 62%
    17:00 +28°C° 0.2 mm 3 mps 708 mmHg 64%
    18:00 +28°C° 0.1 mm 3 mps 708 mmHg 66%
    19:00 +27°C° 0.1 mm 2 mps 708 mmHg 68%
    20:00 +27°C° 0.1 mm 1 mps 709 mmHg 69%
    21:00 +27°C° 0.2 mm 1 mps 709 mmHg 69%
    22:00 +27°C° 0.2 mm 1 mps 709 mmHg 69%
    23:00 +25°C° 0.2 mm 0 mps 709 mmHg 69%

    Day after tomorrow, 2 June, Tuesday

    Time Temperature Precipitation Wind Pressure Humidity
    00:00 +27°C° 0.3 mm 1 mps 709 mmHg 71%
    01:00 +27°C° 0.3 mm 1 mps 709 mmHg 74%
    02:00 +26°C° 0.3 mm 2 mps 709 mmHg 76%
    03:00 +26°C° 0.3 mm 2 mps 708 mmHg 77%
    04:00 +26°C° 0.3 mm 3 mps 708 mmHg 78%
    05:00 +26°C° 0.3 mm 3 mps 708 mmHg 78%
    06:00 +27°C° 0 mm 4 mps 709 mmHg 74%
    07:00 +28°C° 0 mm 5 mps 709 mmHg 70%
    08:00 +29°C° 0 mm 6 mps 709 mmHg 65%
    09:00 +29°C° 0.1 mm 6 mps 709 mmHg 64%
    10:00 +29°C° 0.1 mm 6 mps 709 mmHg 63%
    11:00 +29°C° 0.1 mm 6 mps 708 mmHg 62%
    12:00 +30°C° 0.4 mm 6 mps 708 mmHg 62%
    13:00 +30°C° 0.4 mm 5 mps 708 mmHg 61%
    14:00 +30°C° 0.4 mm 5 mps 707 mmHg 61%
    15:00 +29°C° 1.3 mm 5 mps 707 mmHg 64%
    16:00 +29°C° 1.3 mm 5 mps 707 mmHg 68%
    17:00 +28°C° 1.3 mm 5 mps 706 mmHg 71%
    18:00 +28°C° 1.2 mm 4 mps 707 mmHg 74%
    19:00 +27°C° 1.2 mm 4 mps 707 mmHg 78%
    20:00 +26°C° 1.2 mm 4 mps 707 mmHg 81%
    21:00 +26°C° 2.1 mm 4 mps 707 mmHg 82%
    22:00 +26°C° 2.1 mm 5 mps 706 mmHg 83%
    23:00 +26°C° 2.1 mm 5 mps 706 mmHg 84%

    3 June, Wednesday

    Time Temperature Precipitation Wind Pressure Humidity
    00:00 +26°C° 0.6 mm 6 mps 705 mmHg 82%
    01:00 +27°C° 0.6 mm 6 mps 704 mmHg 80%
    02:00 +27°C° 0.6 mm 7 mps 704 mmHg 78%
    03:00 +27°C° 0.9 mm 8 mps 703 mmHg 79%
    04:00 +27°C° 0.9 mm 9 mps 702 mmHg 79%
    05:00 +27°C° 0.9 mm 10 mps 702 mmHg 79%
    06:00 +26°C° 4.1 mm 10 mps 702 mmHg 81%
    07:00 +26°C° 4.1 mm 11 mps 702 mmHg 83%
    08:00 +26°C° 4.1 mm 12 mps 702 mmHg 85%
    09:00 +26°C° 4.3 mm 12 mps 702 mmHg 84%
    10:00 +26°C° 4.3 mm 13 mps 703 mmHg 84%
    11:00 +26°C° 4.3 mm 13 mps 703 mmHg 84%
    12:00 +26°C° 2.7 mm 12 mps 703 mmHg 85%
    13:00 +26°C° 2.7 mm 12 mps 703 mmHg 87%
    14:00 +26°C° 2.7 mm 11 mps 703 mmHg 88%
    15:00 +26°C° 1.1 mm 10 mps 703 mmHg 87%
    16:00 +26°C° 1.1 mm 9 mps 703 mmHg 86%
    17:00 +24°C° 1.1 mm 8 mps 704 mmHg 85%
    18:00 +24°C° 0.2 mm 7 mps 704 mmHg 85%
    19:00 +24°C° 0.2 mm 7 mps 705 mmHg 85%
    20:00 +24°C° 0.2 mm 6 mps 706 mmHg 86%
    21:00 +24°C° 0 mm 6 mps 706 mmHg 85%
    22:00 +24°C° 0 mm 6 mps 707 mmHg 85%
    23:00 +25°C° 0 mm 5 mps 707 mmHg 85%

    4 June, Thursday

    Time Temperature Precipitation Wind Pressure Humidity
    00:00 +25°C° 0 mm 5 mps 707 mmHg 84%
    01:00 +25°C° 0 mm 5 mps 707 mmHg 83%
    02:00 +25°C° 0 mm 5 mps 706 mmHg 83%
    03:00 +23°C° 0 mm 5 mps 706 mmHg 83%
    04:00 +23°C° 0 mm 4 mps 706 mmHg 84%
    05:00 +23°C° 0 mm 4 mps 707 mmHg 85%
    06:00 +25°C° 0 mm 4 mps 707 mmHg 81%
    07:00 +26°C° 0 mm 5 mps 708 mmHg 77%
    08:00 +27°C° 0 mm 5 mps 708 mmHg 73%
    09:00 +28°C° 0 mm 6 mps 708 mmHg 69%
    10:00 +29°C° 0 mm 6 mps 708 mmHg 65%
    11:00 +32°C° 0 mm 6 mps 709 mmHg 61%
    12:00 +32°C° 0.1 mm 6 mps 708 mmHg 59%
    13:00 +32°C° 0.1 mm 6 mps 708 mmHg 58%
    14:00 +33°C° 0.1 mm 6 mps 708 mmHg 57%
    15:00 +32°C° 0.1 mm 6 mps 707 mmHg 59%
    16:00 +32°C° 0.1 mm 6 mps 707 mmHg 61%
    17:00 +30°C° 0.1 mm 6 mps 707 mmHg 63%
    18:00 +29°C° 0.1 mm 5 mps 707 mmHg 67%
    19:00 +28°C° 0.1 mm 5 mps 708 mmHg 72%
    20:00 +27°C° 0.1 mm 4 mps 708 mmHg 76%
    21:00 +27°C° 0 mm 4 mps 708 mmHg 78%
    22:00 +26°C° 0 mm 4 mps 709 mmHg 80%
    23:00 +26°C° 0 mm 3 mps 709 mmHg 81%

    5 June, Friday

    Time Temperature Precipitation Wind Pressure Humidity
    00:00 +26°C° 0 mm 3 mps 708 mmHg 83%
    01:00 +26°C° 0 mm 3 mps 708 mmHg 84%
    02:00 +25°C° 0 mm 3 mps 707 mmHg 85%
    03:00 +25°C° 0 mm 3 mps 707 mmHg 87%
    04:00 +25°C° 0 mm 2 mps 707 mmHg 88%
    05:00 +25°C° 0 mm 2 mps 707 mmHg 89%
    06:00 +26°C° 0 mm 2 mps 708 mmHg 84%
    07:00 +27°C° 0 mm 2 mps 708 mmHg 79%
    08:00 +27°C° 0 mm 3 mps 709 mmHg 73%
    09:00 +29°C° 0 mm 3 mps 709 mmHg 68%
    10:00 +30°C° 0 mm 4 mps 709 mmHg 62%
    11:00 +33°C° 0 mm 5 mps 709 mmHg 56%
    12:00 +33°C° 0.1 mm 5 mps 709 mmHg 55%
    13:00 +34°C° 0.1 mm 6 mps 709 mmHg 54%
    14:00 +34°C° 0.1 mm 6 mps 709 mmHg 52%
    15:00 +33°C° 0.1 mm 6 mps 708 mmHg 55%
    16:00 +32°C° 0.1 mm 6 mps 708 mmHg 58%
    17:00 +32°C° 0.1 mm 6 mps 708 mmHg 61%
    18:00 +30°C° 0 mm 5 mps 708 mmHg 65%
    19:00 +29°C° 0 mm 5 mps 708 mmHg 70%
    20:00 +28°C° 0 mm 4 mps 708 mmHg 74%
    21:00 +27°C° 0 mm 4 mps 709 mmHg 76%
    22:00 +27°C° 0 mm 4 mps 709 mmHg 77%
    23:00 +27°C° 0 mm 4 mps 709 mmHg 78%
    Show more